Location: Sternwarte ZA, Rosenfeld-Brittheim
(48.2889°N, 8.6789°E)
Time: 19:39:11
(UTC+02:00)

ISS - Pass Details

Date: 13 July 2019
Orbit: 409 x 418 km, 51.6° (Epoch: 20 July)

Event Time Altitude Azimuth Distance (km) Brightness Sun altitude
Exits shadow 02:24:27 25° 274° (W) 880 -2.3 -18.8°
Maximum altitude 02:26:10 58° 346° (NNW) 485 -3.3 -18.7°
Drops below altitude 10° 02:29:28 10° 67° (ENE) 1,481 -0.5 -18.6°
Sets 02:31:34 0° 71° (ENE) 2,343 0.5 -18.5°
